"Pseudo-MPEC" for P21Y1TY

Created 2024 Sep 9 18:22:18 UT using Find_Orb

Click here for an explanation of pseudo-MPECs

 
 Astrometry: 
     P21Y1TY* C2024 09 04.58610204 19 09.643+24 45 43.21   ~94J7 21.93wXNEOCPF52
     P21Y1TY  C2024 09 04.59863404 19 11.132+24 46 13.94   ~94J7 21.82wXNEOCPF52
     P21Y1TY  C2024 09 04.61116804 19 12.613+24 46 45.04   ~94J7 22.22wXNEOCPF52

Station data:
(F52) Pan-STARRS 2, Haleakala  (N20.707382 W156.255910)  US/Hawaii.
   Observers J. Bulger, T. Dukes, T. Lowe, A. Schultz, M. Willman. Measurers
   K. Chambers, S. Chastel, T. de Boer, L. Denneau, J. Fairlamb, H.
   Flewelling, M. Huber, C.-C. Lin, E. Magnier, Y. Ramanjooloo, R. Wainscoat,
   R. Weryk. 1.8-m Ritchey-Chrétien + CCD.

Orbital elements:  P21Y1TY
   Perihelion 2024 Oct 29.80306 +/- 55.4 TT = 19:16:24 (JD 2460613.30306)
Epoch 2024 Sep  5.0 TT = JDT 2460558.5   Earth MOID: 0.0712   Ma: 0.0744
M 273.41243625 +/- 60               (J2000 ecliptic)             AutoNEOCP
n   1.57997667 +/- 0.998            Peri.  170.84777 +/- 90
a   0.73007744 +/- 0.307            Node     7.55311 +/- 53
e   0.9237267 +/- 0.25              Incl.  130.85095 +/- 60
P   0.624/227.847d         H 21.01  G  0.15   U 12.8  SR
q 0.05568540 +/- 0.452    Q 1.40446948 +/- 15.8
From 3 observations 2024 Sept. 4 (36.1 min); mean residual 0".06
Residuals in arcseconds: 
240904 F52  .02-  .06+    240904 F52  .03+  .12-    240904 F52  .04-  .06+    

Ephemerides (geocentric):
Date (UTC) HH   RA             Dec           delta  r     elong  mag " sig PA
---- --------  ------------   ------------  ------ ------ -----  --- --------
2024 09 09 18  04 33 33.254   +29 26 07.60  .35040 1.1005  96.0 21.3  51d  77
2024 09 09 19  04 33 42.745   +29 29 08.93  .34941 1.1000  96.0 21.2  51d  77
2024 09 09 20  04 33 52.294   +29 32 11.22  .34842 1.0996  96.0 21.2  51d  77
2024 09 09 21  04 34 01.901   +29 35 14.50  .34744 1.0992  96.0 21.2  52d  76
2024 09 09 22  04 34 11.568   +29 38 18.77  .34645 1.0987  96.0 21.2  52d  76
2024 09 09 23  04 34 21.295   +29 41 24.03  .34547 1.0983  96.0 21.2  52d  76
2024 09 10 00  04 34 31.082   +29 44 30.30  .34448 1.0979  96.0 21.2  52d  76
2024 09 10 01  04 34 40.930   +29 47 37.57  .34350 1.0974  96.0 21.2  52d  76
2024 09 10 02  04 34 50.840   +29 50 45.87  .34251 1.0970  96.0 21.2  52d  76
2024 09 10 03  04 35 00.812   +29 53 55.20  .34153 1.0966  96.0 21.2  52d  76
2024 09 10 04  04 35 10.847   +29 57 05.56  .34054 1.0962  96.0 21.2  52d  76
2024 09 10 05  04 35 20.946   +30 00 16.96  .33956 1.0957  96.0 21.2  52d  76
2024 09 10 06  04 35 31.109   +30 03 29.42  .33858 1.0953  96.0 21.2  52d  76
2024 09 10 07  04 35 41.337   +30 06 42.94  .33759 1.0948  96.0 21.2  52d  76
2024 09 10 08  04 35 51.631   +30 09 57.52  .33661 1.0944  96.0 21.2  52d  76
2024 09 10 09  04 36 01.992   +30 13 13.19  .33563 1.0940  96.0 21.2  52d  76
2024 09 10 10  04 36 12.419   +30 16 29.94  .33465 1.0935  96.0 21.2  53d  76
2024 09 10 11  04 36 22.915   +30 19 47.78  .33366 1.0931  96.0 21.2  53d  76
2024 09 10 12  04 36 33.479   +30 23 06.73  .33268 1.0927  96.0 21.2  53d  76
2024 09 10 13  04 36 44.112   +30 26 26.80  .33170 1.0922  95.9 21.1  53d  76
2024 09 10 14  04 36 54.816   +30 29 47.98  .33072 1.0918  95.9 21.1  53d  76
2024 09 10 15  04 37 05.590   +30 33 10.29  .32974 1.0914  95.9 21.1  53d  72
2024 09 10 16  04 37 16.436   +30 36 33.75  .32876 1.0909  95.9 21.1  53d  73
2024 09 10 17  04 37 27.355   +30 39 58.35  .32778 1.0905  95.9 21.1  53d  73
2024 09 10 18  04 37 38.346   +30 43 24.11  .32680 1.0900  95.9 21.1  53d  73
2024 09 10 19  04 37 49.412   +30 46 51.04  .32582 1.0896  95.9 21.1  53d  73
2024 09 10 20  04 38 00.553   +30 50 19.14  .32484 1.0892  95.9 21.1  53d  73
2024 09 10 21  04 38 11.769   +30 53 48.43  .32387 1.0887  95.9 21.1  54d  73
2024 09 10 22  04 38 23.062   +30 57 18.92  .32289 1.0883  95.9 21.1  54d  73
2024 09 10 23  04 38 34.432   +31 00 50.61  .32191 1.0878  95.9 21.1  54d  73
2024 09 11 00  04 38 45.880   +31 04 23.52  .32093 1.0874  95.9 21.1  54d  73
2024 09 11 01  04 38 57.408   +31 07 57.65  .31996 1.0870  95.8 21.1  54d  73
2024 09 11 02  04 39 09.015   +31 11 33.02  .31898 1.0865  95.8 21.1  54d  73
2024 09 11 03  04 39 20.704   +31 15 09.64  .31800 1.0861  95.8 21.1  54d  73
2024 09 11 04  04 39 32.474   +31 18 47.51  .31703 1.0856  95.8 21.1  55d  73
2024 09 11 05  04 39 44.327   +31 22 26.65  .31605 1.0852  95.8 21.1  55d  73
2024 09 11 06  04 39 56.264   +31 26 07.06  .31508 1.0847  95.8 21.0  55d  73
2024 09 11 07  04 40 08.286   +31 29 48.77  .31411 1.0843  95.8 21.0  55d  73
2024 09 11 08  04 40 20.393   +31 33 31.77  .31313 1.0839  95.8 21.0  55d  73
2024 09 11 09  04 40 32.587   +31 37 16.07  .31216 1.0834  95.8 21.0  55d  73
2024 09 11 10  04 40 44.868   +31 41 01.70  .31119 1.0830  95.7 21.0  55d  72
2024 09 11 11  04 40 57.239   +31 44 48.66  .31021 1.0825  95.7 21.0  55d  72
2024 09 11 12  04 41 09.698   +31 48 36.96  .30924 1.0821  95.7 21.0  55d  72
2024 09 11 13  04 41 22.249   +31 52 26.61  .30827 1.0816  95.7 21.0  55d  72
2024 09 11 14  04 41 34.892   +31 56 17.63  .30730 1.0812  95.7 21.0  56d  72
2024 09 11 15  04 41 47.627   +32 00 10.02  .30633 1.0807  95.7 21.0  56d  72
2024 09 11 16  04 42 00.456   +32 04 03.80  .30536 1.0803  95.7 21.0  56d  72
2024 09 11 17  04 42 13.381   +32 07 58.97  .30439 1.0798  95.6 21.0  56d  72